Tracking 27401 objects as of 3-Jun-2023
HD Live streaming from Space Station
objects crossing your sky now

THOR ABLESTAR DEB

Track THOR ABLESTAR DEB now!
10-day predictions


NORAD ID: 461
Int'l Code: 1961-015EX
Perigee: 651.2 km
Apogee: 712.6 km
Inclination: 67.5 °
Period: 98.2 minutes
Semi major axis: 7052 km
RCS: 0.1159 m2 (medium)
Launch date: June 29, 1961
Source: United States (US)
Launch site: AIR FORCE EASTERN TEST RANGE (AFETR)

Note: This is SATELLITE DEBRIS
Your satellite tracking list
Your tracking list is empty




NASA's NSSDC Master Catalog

Two Line Element Set (TLE):
1 00461U 61015EX  23153.69817364  .00005193  00000-0  95563-3 0  9991
2 00461  67.5080 272.3748 0043563 329.5678  30.2917 14.65727098221065
Source of the keplerian elements: AFSPC